カタログに戻る

IRIDIUM 33 DEB

運用中PO
NORAD 35628·DEBRIS·🇺🇸 United States

打ち上げ Sep 14, 1997 から Baikonur Cosmodrome

Loading…

次のパス (今後24時間)

TLE

最新Source: Space-Track

元期: Sep 13, 2026, 16:55 UTC

1 35628U 97051RA  26256.70508696  .00004675  00000-0  75314-3 0  9993
2 35628  86.3513 245.9820 0014122  99.2062 261.0752 14.71243626904855

AllMySatでIRIDIUM 33 DEBをリアルタイム追跡

Download on the App Store